This is the latest recevied weather packets stored in our database for station/object DL7HMX-13. If no packets are shown the sender has not sent any weather packets the latest 10 day(s).
| Time | Temp. | Humidity | Pressure | Rain* | Wind** | Luminosity | Snow |
|---|---|---|---|---|---|---|---|
| 1777684218 | 5.56° C | 92% | 1025.6 hPa | 0 mm | - | 0 W/m² | - |
| 1777683619 | 5.56° C | 93% | 1025.6 hPa | 0 mm | - | 0 W/m² | - |
| 1777683023 | 5.56° C | 92% | 1025.7 hPa | 0 mm | - | 0 W/m² | - |
| 1777682426 | 5.56° C | 92% | 1025.6 hPa | 0 mm | - | 0 W/m² | - |
| 1777681829 | 6.11° C | 91% | 1025.7 hPa | 0 mm | - | 0 W/m² | - |
| 1777681231 | 6.67° C | 90% | 1025.7 hPa | 0 mm | - | 0 W/m² | - |
| 1777680618 | 6.67° C | 89% | 1025.9 hPa | 0 mm | - | 0 W/m² | - |
| 1777680021 | 6.67° C | 90% | 1025.9 hPa | 0 mm | - | 0 W/m² | - |
| 1777679423 | 6.67° C | 89% | 1025.9 hPa | 0 mm | - | 0 W/m² | - |
| 1777678826 | 7.22° C | 88% | 1025.9 hPa | 0 mm | - | 0 W/m² | - |
| 1777678230 | 7.22° C | 86% | 1026.1 hPa | 0 mm | - | 0 W/m² | - |
| 1777677617 | 7.22° C | 87% | 1026.2 hPa | 0 mm | - | 0 W/m² | - |
| 1777677019 | 7.78° C | 86% | 1026.3 hPa | 0 mm | - | 0 W/m² | - |
| 1777676422 | 7.78° C | 86% | 1026.1 hPa | 0 mm | - | 0 W/m² | - |
| 1777675825 | 7.78° C | 85% | 1026.2 hPa | 0 mm | - | 0 W/m² | - |
| 1777675229 | 8.33° C | 83% | 1026.2 hPa | 0 mm | - | 0 W/m² | - |
| 1777674631 | 8.89° C | 80% | 1026.1 hPa | 0 mm | - | 0 W/m² | - |
| 1777674018 | 8.89° C | 79% | 1026.2 hPa | 0 mm | - | 0 W/m² | - |
| 1777673425 | 8.89° C | 80% | 1026.3 hPa | 0 mm | - | 0 W/m² | - |
| 1777672823 | 8.89° C | 80% | 1026.2 hPa | 0 mm | - | 0 W/m² | - |
| 1777672224 | 8.89° C | 79% | 1026.2 hPa | 0 mm | - | 0 W/m² | - |
| 1777671619 | 9.44° C | 78% | 1026.1 hPa | 0 mm | - | 0 W/m² | - |
| 1777671021 | 9.44° C | 76% | 1026.1 hPa | 0 mm | - | 0 W/m² | - |
| 1777670425 | 9.44° C | 75% | 1026.1 hPa | 0 mm | - | 0 W/m² | - |
| 1777669829 | 10° C | 75% | 1026.1 hPa | 0 mm | - | 0 W/m² | - |
* Rain latest hour (hover to see other rain measurements)
** Current wind speed in m/s (hover to see current wind gust speed)